Simultaneous Nadir Overpasses (SNOs) Predictions

Prediction of SNOs between GOES-16 and METOP-C Satellite Orbit:

Table of predicted SNOs for the next 14.0 days since TLE Epoch: 7/6/2019
Index Date Time (GOES-16) GOES-16 Lat,Lon METOP-C Lat,Lon Distance(km) Time Diff (sec)
1 07/06/2019 14:45:14 -0.00, -75.20 0.64, -78.17 338.80 80
2 07/07/2019 14:21:55 -0.01, -75.20 -0.45, -73.18 230.58 80
3 07/09/2019 02:43:35 0.01, -75.21 -0.54, -77.78 292.15 80
4 07/10/2019 02:20:16 0.01, -75.22 0.55, -72.78 277.75 80
5 07/11/2019 14:41:49 -0.01, -75.23 0.44, -77.35 240.46 80
6 07/12/2019 14:18:30 -0.01, -75.24 -0.65, -72.35 329.82 80
7 07/14/2019 02:40:10 0.01, -75.26 -0.34, -76.95 191.77 80
8 07/15/2019 02:16:50 0.01, -75.27 0.75, -71.95 378.70 80
9 07/16/2019 14:38:24 -0.01, -75.30 0.24, -76.52 138.74 80
10 07/17/2019 14:15:04 -0.02, -75.32 -0.85, -71.52 432.06 80
11 07/19/2019 02:36:44 0.02, -75.35 -0.14, -76.12 88.52 80
12 07/20/2019 02:13:25 0.03, -75.37 0.95, -71.13 482.68 80




NCC Satellite Simultaneous Nadir Overpasses (SNOs) Prediction Service
